Weather in Barda

Russia / Perm Krai     56°55′37″N   55°35′29″E
В апреле 2022 года жителям России запретили посещать сайт meteo.paraplan.net по решению Генеральной прокуратуры. Аудитория сайта уменьшилась в 10 раз. Владельцы сайта не видят смысла в поддержке погодного сервера в таких условиях. Сайт будет закрыт в октябре.
temp.,
°C
wind,
m/s
gust,
m/s
humid.,
%
clouds,
%
prec.,
mm/h
press.,
hPa
HPBL,
m
4 october, tue
tue423:00+9s31064100 0.0 1025215
02:00+8s4106099 0.0 1026231
05:00+6sse356430 0.0 102778
08:00+6sse356445 0.0 102879
11:00+11s5104319 0.0 1029416
14:00+15s69325 0.0 1030789
17:00+14s59362 0.0 1030734
20:00+9sse3647100 0.0 1030116
5 october, wed
wed523:00+8sse254943 0.0 103079
02:00+7sse3350100 0.0 103058
05:00+7sse31045100 0.0 1030267
08:00+7sse41042100 0.0 1029330
11:00+9s51038100 0.0 1029530
14:00+8sse51255100 0.4 1028835
17:00+9sse51244100 0.4 1026654
20:00+9s41140100 0.0 1026391
6 october, thu
thu623:00+10s51235100 0.0 1024588
02:00+7s61177100 0.1 1024504
05:00+6sse51089100 1.1 1021440
08:00+7sse51273100 0.0 1019482
11:00+9s51356100 0.0 1016664
14:00+11s61152100 0.0 1016850
17:00+8s596635 0.0 1016559
20:00+7s488091 0.1 1016368
7 october, fri
fri723:00+7sse368460 0.5 1016244
02:00+6s369295 0.1 1015172
05:00+4sw26965 0.1 1015146
08:00+3ssw24965 0.0 1015104
11:00+7sw467631 0.0 1014600
14:00+7sw478297 0.0 1013600
17:00+9sw5766100 0.3 10121045
20:00+8sw5971100 0.1 10111011
8 october, sat
sat823:00+6sw5990100 1.4 10101115
02:00+7w4991100 0.6 1009554
05:00+6wnw3892100 0.6 1010550
08:00+7w3895100 0.3 1010530
11:00+8nw598771 2.1 1012736
14:00+9nw5977100 0.3 10141121
17:00+9wnw697355 0.6 10151029
20:00+7wnw4986100 0.1 1018334